SL-12 R/B(AUX MOTOR)

基本信息
目录编号:
15054
目录名称:
SL-12 R/B(AUX MOTOR)
国际标识:
1984-047H
轨道中心:
EARTH
物体状态:
在轨
发射日期:
1984-05-19 UTC
国别:
俄罗斯(独联体) (CIS)
轨道信息
数据来源: 国际轨道数据
星历时间: 2026-09-08T18:07:56+0800
半长轴: 12529.213km
偏心率: 0.4670211
轨道倾角: 52.019°
近地点辐角: 258.607°
升交点赤经: 36.936°
平近点角: 47.268°
近地点: 299.669km
远地点: 12002.483km
周期: 232.619分钟
每日圈数: 6.190377
详细信息
发射场:
TTMTR
轨道高度:
LEO
数据来源:
AOE Integration Group
参考系:
TEME
时间系统:
UTC
历元类型:
SGP4
2D轨道图
3D轨道图
轨道高度分析图
轨道倾角分析图
轨道综合分析图
查看轨道综合分析图